OK1HOL-13 Weather Reports


time (UTC)temp
F
wind
direction
speed
knots
gust
knots
rain 1hr
in
rain 24hr
in
rain mn
in
humidity
%
barometer
mb
20260507075605 60 0.0 0.0 0.00 0.00 0.00 61 1010.9
20260507074605 60 0.0 0.0 0.00 0.00 0.00 62 1010.9
20260507073606 59 0.0 0.0 0.00 0.00 0.00 64 1010.8
20260507072606 59 0.0 0.0 0.00 0.00 0.00 64 1010.8
20260507071606 59 0.0 0.0 0.00 0.00 0.00 64 1010.6
20260507070606 59 0.0 0.0 0.00 0.00 0.00 64 1010.5
20260507065606 59 0.0 0.0 0.00 0.00 0.00 66 1010.5
20260507064606 59 0.0 0.0 0.00 0.00 0.00 68 1010.3
20260507063606 58 0.0 0.0 0.00 0.00 0.00 71 1010.3
20260507062606 58 0.0 0.0 0.00 0.00 0.00 74 1010.2
20260507061605 58 0.0 0.0 0.00 0.00 0.00 75 1010.1
20260507060606 57 0.0 0.0 0.00 0.00 0.00 77 1010.1
20260507055606 56 0.0 0.0 0.00 0.00 0.00 78 1010.0
20260507054606 56 0.0 0.0 0.00 0.00 0.00 78 1009.9
20260507053606 55 0.0 0.0 0.00 0.00 0.00 79 1009.8
20260507052606 55 0.0 0.0 0.00 0.00 0.00 79 1009.8
20260507051606 55 0.0 0.0 0.00 0.00 0.00 79 1009.7
20260507050605 55 0.0 0.0 0.00 0.00 0.00 79 1009.6
20260507045605 55 0.0 0.0 0.00 0.00 0.00 80 1009.5
20260507044606 55 0.0 0.0 0.00 0.00 0.00 80 1009.3
20260507043606 54 0.0 0.0 0.00 0.00 0.00 81 1009.3
20260507042606 54 0.0 0.0 0.00 0.00 0.00 81 1009.2
20260507041606 54 0.0 0.0 0.00 0.00 0.00 81 1009.0
20260507040605 54 0.0 0.0 0.00 0.00 0.00 81 1008.9
20260507035606 54 0.0 0.0 0.00 0.00 0.00 82 1008.9
20260507034605 54 0.0 0.0 0.00 0.00 0.00 84 1008.8
20260507033605 54 0.0 0.0 0.00 0.00 0.00 83 1008.8
20260507032606 55 0.0 0.0 0.00 0.00 0.00 82 1008.7
20260507031606 55 0.0 0.0 0.00 0.00 0.00 83 1008.7
20260507030605 55 0.0 0.0 0.00 0.00 0.00 84 1008.6
20260507025606 55 0.0 0.0 0.00 0.00 0.00 85 1008.6
20260507024606 55 0.0 0.0 0.00 0.00 0.00 85 1008.4
20260507023606 55 0.0 0.0 0.00 0.00 0.00 84 1008.4
20260507022605 56 0.0 0.0 0.00 0.00 0.00 85 1008.4
20260507021605 56 0.0 0.0 0.00 0.00 0.00 86 1008.4
20260507020605 56 0.0 0.0 0.00 0.00 0.00 85 1008.4
20260507015605 56 0.0 0.0 0.00 0.00 0.00 88 1008.3
20260507014606 56 0.0 0.0 0.00 0.00 0.00 89 1008.0
20260507013605 56 0.0 0.0 0.00 0.00 0.00 89 1008.1
20260507012605 56 0.0 0.0 0.00 0.00 0.00 88 1008.1
20260507011609 57 0.0 0.0 0.00 0.00 0.00 86 1007.7
20260507010604 57 0.0 0.0 0.00 0.00 0.00 87 1007.6
20260507005604 57 0.0 0.0 0.00 0.00 0.00 87 1007.6
20260507004604 57 0.0 0.0 0.00 0.00 0.00 87 1007.6
20260507003604 57 0.0 0.0 0.00 0.00 0.00 88 1007.5
20260507002604 57 0.0 0.0 0.00 0.00 0.00 88 1007.4
20260507001604 57 0.0 0.0 0.00 0.00 0.00 89 1007.4
20260507000604 58 0.0 0.0 0.00 0.00 0.00 89 1007.2
20260506235604 58 0.0 0.0 0.00 0.00 0.00 88 1006.9
20260506234604 58 0.0 0.0 0.00 0.00 0.00 86 1007.0
20260506233604 58 0.0 0.0 0.00 0.00 0.00 86 1007.0
20260506232604 58 0.0 0.0 0.00 0.00 0.00 88 1007.0
20260506231604 58 0.0 0.0 0.00 0.00 0.00 87 1007.0
20260506230604 58 0.0 0.0 0.00 0.00 0.00 88 1006.9
20260506225604 58 0.0 0.0 0.00 0.00 0.00 88 1007.0
20260506224604 58 0.0 0.0 0.00 0.00 0.00 89 1007.0
20260506223604 58 0.0 0.0 0.00 0.00 0.00 90 1006.9
20260506222604 58 0.0 0.0 0.00 0.00 0.00 88 1006.9
20260506221604 58 0.0 0.0 0.00 0.00 0.00 91 1006.8
20260506220604 58 0.0 0.0 0.00 0.00 0.00 91 1006.7
20260506215604 58 0.0 0.0 0.00 0.00 0.00 91 1006.7
20260506214604 58 0.0 0.0 0.00 0.00 0.00 91 1006.7
20260506213604 58 0.0 0.0 0.00 0.00 0.00 90 1006.6
20260506211604 58 0.0 0.0 0.00 0.00 0.00 89 1006.6
20260506210604 58 0.0 0.0 0.00 0.00 0.00 87 1006.7
20260506205607 58 0.0 0.0 0.00 0.00 0.00 83 1006.9
20260506204604 58 0.0 0.0 0.00 0.00 0.00 83 1006.8
20260506203604 59 0.0 0.0 0.00 0.00 0.00 85 1006.9
20260506202604 59 0.0 0.0 0.00 0.00 0.00 83 1006.8
20260506201604 59 0.0 0.0 0.00 0.00 0.00 82 1006.0
20260506200604 60 0.0 0.0 0.00 0.00 0.00 80 1005.7
20260506195604 61 0.0 0.0 0.00 0.00 0.00 83 1005.3
20260506194604 61 0.0 0.0 0.00 0.00 0.00 77 1005.4
20260506193604 62 0.0 0.0 0.00 0.00 0.00 77 1005.4
20260506192604 62 0.0 0.0 0.00 0.00 0.00 73 1005.2
20260506191604 62 0.0 0.0 0.00 0.00 0.00 69 1005.6
20260506190604 62 0.0 0.0 0.00 0.00 0.00 67 1005.4
20260506185604 62 0.0 0.0 0.00 0.00 0.00 68 1005.2
20260506184604 62 0.0 0.0 0.00 0.00 0.00 68 1005.0
20260506183604 62 0.0 0.0 0.00 0.00 0.00 67 1005.0
20260506182604 63 0.0 0.0 0.00 0.00 0.00 68 1004.5
20260506181604 63 0.0 0.0 0.00 0.00 0.00 65 1004.1
20260506180604 63 0.0 0.0 0.00 0.00 0.00 66 1004.1
20260506175604 64 0.0 0.0 0.00 0.00 0.00 65 1003.9
20260506174604 64 0.0 0.0 0.00 0.00 0.00 64 1003.9
20260506173604 64 0.0 0.0 0.00 0.00 0.00 62 1004.2
20260506172604 65 0.0 0.0 0.00 0.00 0.00 60 1004.2
20260506171604 65 0.0 0.0 0.00 0.00 0.00 63 1004.2
20260506170604 64 0.0 0.0 0.00 0.00 0.00 63 1004.1
20260506165604 64 0.0 0.0 0.00 0.00 0.00 62 1004.1
20260506164604 64 0.0 0.0 0.00 0.00 0.00 62 1004.1
20260506163604 65 0.0 0.0 0.00 0.00 0.00 61 1004.2
20260506162604 65 0.0 0.0 0.00 0.00 0.00 59 1004.4
20260506161604 66 0.0 0.0 0.00 0.00 0.00 58 1004.3
20260506160604 65 0.0 0.0 0.00 0.00 0.00 59 1004.2
20260506155604 65 0.0 0.0 0.00 0.00 0.00 62 1004.5
20260506154604 65 0.0 0.0 0.00 0.00 0.00 61 1004.6
20260506153604 65 0.0 0.0 0.00 0.00 0.00 59 1004.7
20260506152604 66 0.0 0.0 0.00 0.00 0.00 57 1004.8
20260506151604 67 0.0 0.0 0.00 0.00 0.00 51 1004.8
20260506150604 68 0.0 0.0 0.00 0.00 0.00 51 1004.7
20260506145604 70 0.0 0.0 0.00 0.00 0.00 48 1004.8
20260506144604 71 0.0 0.0 0.00 0.00 0.00 44 1004.8
20260506143604 73 0.0 0.0 0.00 0.00 0.00 42 1004.8
20260506142604 73 0.0 0.0 0.00 0.00 0.00 41 1005.0
20260506141604 73 0.0 0.0 0.00 0.00 0.00 40 1004.9
20260506140604 73 0.0 0.0 0.00 0.00 0.00 39 1004.9
20260506135604 74 0.0 0.0 0.00 0.00 0.00 38 1005.0
20260506134604 74 0.0 0.0 0.00 0.00 0.00 38 1005.0
20260506133604 73 0.0 0.0 0.00 0.00 0.00 39 1005.1
20260506131607 75 0.0 0.0 0.00 0.00 0.00 37 1005.2
20260506130603 77 0.0 0.0 0.00 0.00 0.00 34 1005.4
20260506125603 75 0.0 0.0 0.00 0.00 0.00 36 1005.6
20260506124603 78 0.0 0.0 0.00 0.00 0.00 35 1005.7
20260506123603 75 0.0 0.0 0.00 0.00 0.00 37 1005.8
20260506122603 78 0.0 0.0 0.00 0.00 0.00 35 1006.1
20260506121602 76 0.0 0.0 0.00 0.00 0.00 37 1006.2
20260506120602 74 0.0 0.0 0.00 0.00 0.00 38 1006.3
20260506115602 74 0.0 0.0 0.00 0.00 0.00 37 1006.3
20260506114603 75 0.0 0.0 0.00 0.00 0.00 37 1006.2
20260506113603 73 0.0 0.0 0.00 0.00 0.00 39 1006.4
20260506112602 71 0.0 0.0 0.00 0.00 0.00 40 1006.6
20260506111603 72 0.0 0.0 0.00 0.00 0.00 39 1006.7
20260506110603 71 0.0 0.0 0.00 0.00 0.00 42 1006.8
20260506104603 69 0.0 0.0 0.00 0.00 0.00 45 1006.9
20260506103603 68 0.0 0.0 0.00 0.00 0.00 48 1006.9
20260506102603 68 0.0 0.0 0.00 0.00 0.00 48 1007.0
20260506101603 67 0.0 0.0 0.00 0.00 0.00 50 1006.9
20260506100603 66 0.0 0.0 0.00 0.00 0.00 50 1007.2
20260506095603 67 0.0 0.0 0.00 0.00 0.00 50 1007.0
20260506094603 68 0.0 0.0 0.00 0.00 0.00 49 1007.0
20260506093603 67 0.0 0.0 0.00 0.00 0.00 50 1006.9
20260506092603 68 0.0 0.0 0.00 0.00 0.00 50 1006.9
20260506091603 67 0.0 0.0 0.00 0.00 0.00 51 1007.0
20260506090603 66 0.0 0.0 0.00 0.00 0.00 52 1007.0
20260506085603 65 0.0 0.0 0.00 0.00 0.00 53 1007.0
20260506084603 65 0.0 0.0 0.00 0.00 0.00 55 1007.0
20260506083602 64 0.0 0.0 0.00 0.00 0.00 57 1007.0
20260506082603 64 0.0 0.0 0.00 0.00 0.00 58 1007.0
20260506081603 64 0.0 0.0 0.00 0.00 0.00 59 1007.0
20260506080603 63 0.0 0.0 0.00 0.00 0.00 60 1007.1